KG5RGN-13 Weather Reports


time (UTC)temp
F
wind
direction
speed
knots
gust
knots
rain 1hr
in
rain 24hr
in
rain mn
in
humidity
%
barometer
mb
20260505112740 52 274 5.2 7.8 0.00 0.00 0.00 100
20260505112240 52 284 5.2 8.7 0.00 0.00 0.00 100
20260505111740 53 279 6.1 7.8 0.00 0.00 0.00 100
20260505111240 52 286 6.1 7.8 0.00 0.00 0.00 100
20260505110740 52 272 5.2 5.2 0.00 0.00 0.00 100
20260505110313 51 279 0.0 1.7 0.00 0.00 0.00 100
20260505110240 51 279 0.0 1.7 0.00 0.00 0.00 100
20260505101740 53 264 5.2 9.6 0.00 0.00 0.00 100
20260505101240 53 251 3.5 8.7 0.00 0.00 0.00 100
20260505100931 53 300 5.2 9.6 0.00 0.00 0.00 100
20260505100740 53 300 5.2 9.6 0.00 0.00 0.00 100
20260505100240 53 326 3.5 10.4 0.00 0.00 0.00 100
20260505095740 53 257 5.2 10.4 0.00 0.00 0.00 100
20260505095240 53 258 3.5 8.7 0.00 0.00 0.00 100
20260505094740 53 268 7.0 9.6 0.00 0.00 0.00 100
20260505094240 53 248 1.7 14.8 0.00 0.00 0.00 100
20260505093740 54 320 6.1 13.0 0.00 0.00 0.00 100
20260505093240 53 302 4.3 8.7 0.00 0.00 0.00 100
20260505092740 53 298 6.1 7.8 0.00 0.00 0.00 100
20260505092315 53 265 0.0 7.8 0.00 0.00 0.00 100
20260505092240 53 265 0.0 7.8 0.00 0.00 0.00 100
20260505091740 54 236 0.0 10.4 0.00 0.00 0.00 100
20260505091240 53 261 0.0 7.8 0.00 0.00 0.00 100
20260505090740 52 229 0.0 3.5 0.00 0.00 0.00 100
20260505090325 52 291 0.0 2.6 0.00 0.00 0.00 100
20260505090240 52 291 0.0 2.6 0.00 0.00 0.00 100
20260505085740 53 307 0.0 3.5 0.00 0.00 0.00 100
20260505085453 54 293 0.0 3.5 0.00 0.00 0.00 100
20260505085240 54 293 0.0 3.5 0.00 0.00 0.00 100
20260505084740 55 310 3.5 6.1 0.00 0.00 0.00 100
20260505084240 55 298 3.5 6.1 0.00 0.00 0.00 100
20260505083911 53 265 4.3 7.0 0.00 0.00 0.00 100
20260505083740 53 265 4.3 7.0 0.00 0.00 0.00 100
20260505083240 54 299 2.6 4.3 0.00 0.00 0.00 100
20260505082740 54 295 0.0 1.7 0.00 0.00 0.00 100
20260505082240 54 295 0.0 0.0 0.00 0.00 0.00 100
20260505081740 53 295 0.0 0.0 0.00 0.00 0.00 100
20260505081240 53 295 0.0 0.0 0.00 0.00 0.00 100
20260505080740 53 295 0.0 0.0 0.00 0.00 0.00 100
20260505080240 53 295 0.0 0.0 0.00 0.00 0.00 100
20260505075740 54 295 0.0 0.0 0.00 0.00 0.00 100
20260505075240 53 295 0.0 0.0 0.00 0.00 0.00 100
20260505074740 54 295 0.0 0.0 0.00 0.00 0.00 100
20260505074420 57 268 7.0 10.4 0.00 0.00 0.00 100
20260505074410 58 262 7.8 8.7 0.00 0.00 0.00 100
20260505074240 54 295 0.0 0.0 0.00 0.00 0.00 100
20260505073740 55 295 0.0 7.8 0.00 0.00 0.00 100
20260505073240 54 324 3.5 7.0 0.00 0.00 0.00 100
20260505072740 55 264 6.1 8.7 0.00 0.00 0.00 100
20260505072240 56 285 4.3 6.1 0.00 0.00 0.00 100
20260505071740 55 267 2.6 6.1 0.00 0.00 0.00 100
20260505071240 56 316 3.5 7.8 0.00 0.00 0.00 100
20260505070740 56 239 2.6 5.2 0.00 0.00 0.00 100
20260505070240 57 248 0.0 4.3 0.00 0.00 0.00 100
20260505065740 56 312 2.6 9.6 0.00 0.00 0.00 100
20260505065240 56 340 6.1 13.0 0.00 0.00 0.00 100
20260505064740 57 277 7.8 11.3 0.00 0.00 0.00 100
20260505064240 56 240 3.5 9.6 0.00 0.00 0.00 100
20260505063740 57 265 7.8 8.7 0.00 0.00 0.00 100
20260505063240 56 257 2.6 6.1 0.00 0.00 0.00 100
20260505062740 57 267 4.3 7.8 0.00 0.00 0.00 100
20260505062240 56 215 3.5 7.8 0.00 0.00 0.00 100
20260505061740 58 248 0.0 9.6 0.00 0.00 0.00 100
20260505061240 57 268 7.0 10.4 0.00 0.00 0.00 100
20260505060740 58 262 7.8 8.7 0.00 0.00 0.00 100
20260505060240 57 307 6.1 11.3 0.00 0.00 0.00 100
20260505055740 58 267 7.8 13.0 0.00 0.00 0.00 100
20260505055240 57 257 8.7 16.5 0.00 0.00 0.00 100
20260505054740 58 257 7.0 13.9 0.00 0.00 0.00 100
20260505054323 58 271 9.6 13.9 0.00 0.00 0.00 100
20260505054240 58 271 9.6 13.9 0.00 0.00 0.00 100
20260505053740 59 270 9.6 14.8 0.00 0.00 0.00 100
20260505053313 58 277 11.3 14.8 0.00 0.00 0.00 100
20260505053240 58 277 11.3 14.8 0.00 0.00 0.00 100
20260505052740 59 261 4.3 14.8 0.00 0.00 0.00 100
20260505052240 58 271 8.7 12.2 0.00 0.00 0.00 100
20260505051830 58 285 6.1 15.6 0.00 0.00 0.00 100
20260505051740 58 285 6.1 15.6 0.00 0.00 0.00 100
20260505051240 59 341 2.6 13.0 0.00 0.00 0.00 100
20260505050740 58 307 3.5 10.4 0.00 0.00 0.00 100
20260505050240 58 277 3.5 7.8 0.00 0.00 0.00 100
20260505041740 61 268 5.2 10.4 0.00 0.00 0.00 100
20260505041240 60 274 7.8 8.7 0.00 0.00 0.00 100
20260505040740 60 286 0.0 7.8 0.00 0.00 0.00 100
20260505040636 60 258 7.0 7.8 0.00 0.00 0.00 100
20260505040241 60 258 7.0 7.8 0.00 0.00 0.00 100
20260505035824 62 291 0.0 0.0 0.00 0.00 0.00 100
20260505035814 62 291 0.0 0.0 0.00 0.00 0.00 100
20260505035802 63 291 0.0 0.0 0.00 0.00 0.00 100
20260505035740 61 315 4.3 7.8 0.00 0.00 0.00 100
20260505035240 61 261 5.2 7.0 0.00 0.00 0.00 100
20260505034740 62 262 2.6 9.6 0.00 0.00 0.00 100
20260505034240 62 295 6.1 10.4 0.00 0.00 0.00 100
20260505033740 62 246 6.1 7.8 0.00 0.00 0.00 100
20260505033240 61 284 2.6 9.6 0.00 0.00 0.00 100
20260505032740 61 291 3.5 10.4 0.00 0.00 0.00 100
20260505032316 74 261 0.0 5.2 0.00 0.00 0.00 100
20260505032240 63 303 3.5 7.8 0.00 0.00 0.00 100
20260505031740 62 358 5.2 7.8 0.00 0.00 0.00 100
20260505031240 62 281 4.3 8.7 0.00 0.00 0.00 100
20260505030740 62 278 0.0 7.8 0.00 0.00 0.00 100
20260505030240 62 358 5.2 7.8 0.00 0.00 0.00 100
20260505025740 62 206 4.3 7.0 0.00 0.00 0.00 100
20260505025240 62 254 2.6 6.1 0.00 0.00 0.00 100
20260505024740 62 275 5.2 7.0 0.00 0.00 0.00 100
20260505024240 62 291 0.0 0.0 0.00 0.00 0.00 100
20260505023740 61 291 0.0 0.0 0.00 0.00 0.00 100
20260505023240 62 291 0.0 0.0 0.00 0.00 0.00 100
20260505022740 62 291 0.0 0.0 0.00 0.00 0.00 100
20260505022240 62 291 0.0 0.0 0.00 0.00 0.00 100
20260505021740 62 291 0.0 0.0 0.00 0.00 0.00 100
20260505021240 62 291 0.0 0.0 0.00 0.00 0.00 100
20260505020740 63 291 0.0 0.0 0.00 0.00 0.00 100
20260505020617 64 291 0.0 0.0 0.00 0.00 0.00 100
20260505020611 63 291 0.0 0.0 0.00 0.00 0.00 100
20260505020603 64 291 0.0 0.0 0.00 0.00 0.00 100
20260505020240 63 291 0.0 0.0 0.00 0.00 0.00 100
20260505015740 64 291 0.0 0.0 0.00 0.00 0.00 100
20260505015240 63 291 0.0 0.0 0.00 0.00 0.00 100
20260505014740 64 291 0.0 0.0 0.00 0.00 0.00 100
20260505014240 64 291 0.0 0.0 0.00 0.00 0.00 100
20260505014117 72 240 3.5 7.8 0.00 0.00 0.00 100
20260505014109 73 344 2.6 7.0 0.00 0.00 0.00 100
20260505013740 65 291 0.0 0.0 0.00 0.00 0.00 100
20260505013240 65 291 0.0 0.0 0.00 0.00 0.00 100
20260505012740 66 291 0.0 0.0 0.00 0.00 0.00 100
20260505012240 66 291 0.0 0.0 0.00 0.00 0.00 100
20260505011740 66 291 0.0 0.0 0.00 0.00 0.00 100
20260505011240 67 291 0.0 6.1 0.00 0.00 0.00 100
20260505010740 67 279 0.0 4.3 0.00 0.00 0.00 100
20260505010240 67 265 4.3 7.0 0.00 0.00 0.00 100
20260505005740 68 261 2.6 9.6 0.00 0.00 0.00 100
20260505005240 68 277 5.2 7.8 0.00 0.00 0.00 100
20260505004740 68 312 0.0 0.0 0.00 0.00 0.00 100
20260505004240 69 312 0.0 10.4 0.00 0.00 0.00 100
20260505003740 68 233 0.0 7.0 0.00 0.00 0.00 100
20260505003240 68 289 0.0 5.2 0.00 0.00 0.00 100
20260505002741 69 288 0.0 4.3 0.00 0.00 0.00 100
20260505002240 69 288 0.0 5.2 0.00 0.00 0.00 100
20260505001741 69 317 0.0 7.8 0.00 0.00 0.00 100
20260505001240 69 240 6.1 7.0 0.00 0.00 0.00 100
20260505000740 70 293 0.0 8.7 0.00 0.00 0.00 100
20260505000240 69 265 2.6 8.7 0.00 0.00 0.00 100
20260504235741 70 275 4.3 10.4 0.00 0.00 0.00 100
20260504235241 69 298 3.5 6.1 0.00 0.00 0.00 100
20260504234741 70 343 4.3 7.8 0.00 0.00 0.00 100
20260504234241 70 16 4.3 9.6 0.00 0.00 0.00 100
20260504233741 68 16 4.3 7.8 0.00 0.00 0.00 100
20260504233241 70 279 1.7 6.1 0.00 0.00 0.00 100
20260504232741 70 296 4.3 8.7 0.00 0.00 0.00 100
20260504232241 70 275 0.0 12.2 0.00 0.00 0.00 100
20260504231741 69 286 0.0 8.7 0.00 0.00 0.00 100
20260504231241 70 291 2.6 19.1 0.00 0.00 0.00 100
20260504230741 72 289 9.6 9.6 0.00 0.00 0.00 100
20260504230241 72 202 0.0 7.8 0.00 0.00 0.00 100
20260504225741 72 271 1.7 7.8 0.00 0.00 0.00 100
20260504225241 71 317 3.5 8.7 0.00 0.00 0.00 100
20260504224741 72 22 7.0 7.8 0.00 0.00 0.00 100
20260504224241 72 255 5.2 9.6 0.00 0.00 0.00 100
20260504223741 72 285 4.3 9.6 0.00 0.00 0.00 100
20260504223241 73 317 6.1 10.4 0.00 0.00 0.00 100
20260504222741 74 299 9.6 11.3 0.00 0.00 0.00 100
20260504222241 72 240 3.5 7.8 0.00 0.00 0.00 100
20260504221741 73 344 2.6 7.0 0.00 0.00 0.00 100
20260504221241 72 241 1.7 13.0 0.00 0.00 0.00 100
20260504220939 52 147 0.0 0.0 0.00 0.00 0.00 100
20260504220929 52 147 0.0 0.0 0.00 0.00 0.00 100
20260504220741 74 261 0.0 5.2 0.00 0.00 0.00 100
20260504220241 72 248 0.0 10.4 0.00 0.00 0.00 100
20260504215741 74 285 7.0 14.8 0.00 0.00 0.00 100
20260504215241 74 255 4.3 15.6 0.00 0.00 0.00 100
20260504214741 74 343 0.0 11.3 0.00 0.00 0.00 100
20260504214241 72 309 5.2 11.3 0.00 0.00 0.00 100
20260504213741 73 47 7.0 11.3 0.00 0.00 0.00 100
20260504213241 73 281 5.2 10.4 0.00 0.00 0.00 100
20260504212741 74 213 0.0 7.0 0.00 0.00 0.00 100
20260504212241 74 279 0.0 6.1 0.00 0.00 0.00 100
20260504211741 73 246 6.1 12.2 0.00 0.00 0.00 100
20260504211241 74 270 5.2 10.4 0.00 0.00 0.00 100
20260504210741 75 223 6.1 9.6 0.00 0.00 0.00 100
20260504210241 74 303 3.5 7.8 0.00 0.00 0.00 100
20260504205741 73 302 5.2 14.8 0.00 0.00 0.00 100
20260504205241 73 351 7.0 8.7 0.00 0.00 0.00 100
20260504204741 73 279 2.6 13.0 0.00 0.00 0.00 100
20260504204458 72 358 8.7 16.5 0.00 0.00 0.00 100
20260504204241 73 264 4.3 11.3 0.00 0.00 0.00 100
20260504203741 72 343 3.5 12.2 0.00 0.00 0.00 100
20260504203241 73 310 4.3 14.8 0.00 0.00 0.00 100
20260504202741 72 358 8.7 16.5 0.00 0.00 0.00 100
20260504202241 74 326 6.1 13.0 0.00 0.00 0.00 100
20260504201741 75 181 0.0 7.8 0.00 0.00 0.00 100
20260504201314 73 262 7.0 8.7 0.00 0.00 0.00 100
20260504201241 73 262 7.0 8.7 0.00 0.00 0.00 100
20260504200741 73 282 3.5 10.4 0.00 0.00 0.00 100
20260504200241 74 291 4.3 10.4 0.00 0.00 0.00 100
20260504195741 74 300 6.1 12.2 0.00 0.00 0.00 100
20260504195241 74 250 2.6 12.2 0.00 0.00 0.00 100
20260504194741 74 278 5.2 9.6 0.00 0.00 0.00 100
20260504194241 72 258 2.6 10.4 0.00 0.00 0.00 100
20260504193741 73 279 3.5 8.7 0.00 0.00 0.00 100
20260504193241 72 310 3.5 10.4 0.00 0.00 0.00 100
20260504192741 72 267 6.1 9.6 0.00 0.00 0.00 100
20260504192241 72 291 3.5 12.2 0.00 0.00 0.00 100
20260504191741 71 254 4.3 12.2 0.00 0.00 0.00 100
20260504191241 72 313 6.1 10.4 0.00 0.00 0.00 100
20260504190741 72 255 6.1 13.9 0.00 0.00 0.00 100
20260504190241 72 279 7.8 10.4 0.00 0.00 0.00 100
20260504185741 72 272 8.7 12.2 0.00 0.00 0.00 100
20260504185241 71 236 8.7 15.6 0.00 0.00 0.00 100
20260504184741 71 274 15.6 15.6 0.00 0.00 0.00 100
20260504184639 70 251 4.3 9.6 0.00 0.00 0.00 100
20260504184241 70 229 0.0 7.8 0.00 0.00 0.00 100
20260504183741 71 255 0.0 7.0 0.00 0.00 0.00 100
20260504183241 71 264 0.0 9.6 0.00 0.00 0.00 100
20260504182741 70 251 4.3 9.6 0.00 0.00 0.00 100
20260504182241 70 234 0.0 11.3 0.00 0.00 0.00 100
20260504181741 70 293 9.6 13.0 0.00 0.00 0.00 100
20260504181241 70 329 3.5 10.4 0.00 0.00 0.00 100
20260504180741 70 307 5.2 12.2 0.00 0.00 0.00 100
20260504180241 70 212 0.0 8.7 0.00 0.00 0.00 100
20260504175741 69 275 7.0 11.3 0.00 0.00 0.00 100
20260504175241 68 278 4.3 9.6 0.00 0.00 0.00 100
20260504174741 68 298 4.3 8.7 0.00 0.00 0.00 100
20260504174241 68 264 6.1 10.4 0.00 0.00 0.00 100
20260504173741 67 271 6.1 12.2 0.00 0.00 0.00 100
20260504173241 68 267 8.7 9.6 0.00 0.00 0.00 100
20260504172741 68 267 2.6 8.7 0.00 0.00 0.00 100
20260504172241 68 240 5.2 9.6 0.00 0.00 0.00 100
20260504171741 68 241 6.1 11.3 0.00 0.00 0.00 100
20260504171241 65 270 3.5 7.8 0.00 0.00 0.00 100
20260504170741 65 288 4.3 9.6 0.00 0.00 0.00 100
20260504170241 67 260 2.6 5.2 0.00 0.00 0.00 100
20260504160241 62 310 0.0 6.1 0.00 0.00 0.00 100
20260504150741 58 147 0.0 0.0 0.00 0.00 0.00 100
20260504150241 59 147 0.0 0.0 0.00 0.00 0.00 100
20260504141241 55 147 0.0 0.0 0.00 0.00 0.00 100
20260504140741 55 147 0.0 0.0 0.00 0.00 0.00 100
20260504140241 54 147 0.0 0.0 0.00 0.00 0.00 100
20260504130741 53 147 0.0 0.0 0.00 0.00 0.00 100
20260504130241 52 147 0.0 0.0 0.00 0.00 0.00 100
20260504120241 52 175 0.0 3.5 0.00 0.00 0.00 100